• Join FlightAware (Why Join?)
  • Login
  • US Flag 
09:17AM EDT


 

Airport Tracker/Info


-or-


 

Live Flight TrackerFlight Track Log ✈ SBS4589 ✈ 16-Jun-2014 ✈ TUPJ / EIS - TJSJ / SJU

Flight Track Log - Related Links

Times and Time Zones

All times are in EDT time to prevent confusion due to time zone crossing. See the SBS4589 flight status page for this flight to view local times or setup timezone preferences in your user account.

Time Position Orientation Groundspeed Altitude Reporting Facility
EDT Latitude Longitude Course Direction KTS MPH feet Rate Location/Type
05:14PM 18.4833 -64.5167 305° West 170 196 2,500  Level San Juan Center
05:15PM 18.5167 -64.5667 305° West 200 230 4,300 1,620 Climbing San Juan Center
05:16PM 18.5167 -64.6167 270° West 180 207 5,800 1,320 Climbing San Juan Center
05:17PM 18.5000 -64.6667 251° West 180 207 7,000 1,080 Climbing San Juan Center
05:18PM 18.5000 -64.7167 270° West 190 219 8,000 480 Climbing San Juan Center
05:19PM 18.4833 -64.8000 258° West 240 276 8,000  Level San Juan Center
05:20PM 18.4667 -64.8667 255° West 260 299 8,000  Level San Juan Center
05:21PM 18.4667 -64.9500 270° West 260 299 8,000  Level San Juan Center
05:22PM 18.4500 -65.0167 255° West 270 311 8,000  Level San Juan Center
05:23PM 18.4333 -65.1000 258° West 270 311 8,000  Level San Juan Center
05:24PM 18.4333 -65.1833 270° West 270 311 8,000 -540 Level San Juan Center
05:25PM 18.4167 -65.2500 255° West 270 311 7,000 -1,020 Descending San Juan Center
05:26PM 18.4000 -65.3333 258° West 270 311 6,000 -540 Descending San Juan Center
05:27PM 18.4000 -65.4167 270° West 250 288 6,000  Level San Juan Center
05:28PM 18.3833 -65.4833 255° West 250 288 6,000  Level San Juan Center
05:29PM 18.3667 -65.5667 258° West 260 299 6,000  Level San Juan Center
05:30PM 18.3667 -65.6333 270° West 260 299 6,000  Level San Juan Center
05:31PM 18.3833 -65.7000 285° West 260 299 6,000 -300 Level San Juan Center
05:32PM 18.3833 -65.7833 270° West 260 299 5,400 -780 Descending San Juan Center
05:33PM 18.3833 -65.8500 270° West 220 253 4,500 -1,020 Descending San Juan Center
05:34PM 18.3833 -65.9167 270° West 180 207 3,400 -1,260 Descending San Juan Center
05:35PM 18.3833 -65.9667 270° West 180 207 2,000 -900 Descending San Juan Center
05:36PM 18.3833 -66.0000 270° West 150 173 1,600 -480 Descending San Juan Center
05:37PM 18.4000 -66.0333 298° West 130 150 1,100 -600 Descending San Juan Center
05:38PM 18.4167 -66.0167 43° Northeast 110 127 400 -720 Descending San Juan Center